Terminal Aerodrome Forecast
Issued by NWS

Home | Current Version | Previous Version | Text Only | Print | Product List | Glossary On
Versions: 1 2 3 4 5 6 7 8 9 10 11 12 13
000
FTUS42 KTAE 022324
TAFECP
TAF
KECP 022324Z 0300/0324 24008KT P6SM SCT050
     FM030100 27003KT P6SM FEW050
     FM031800 28007KT P6SM SCT040=

USA.gov is the U.S. government's official web portal to all federal, state and local government web resources and services.